Weather Roundup
Issued by NWS Springfield, MO

Home | Current Version | Previous Version | Text Only | Print | Product List | Glossary On
Versions: 1 2 3 4 5 6 7 8 9 10 11 12 13 14 15 16 17 18 19 20 21 22 23 24 25 26 27 28 29 30 31 32 33 34 35 36 37 38 39 40 41 42 43 44 45 46 47 48 49 50
000
NZUS99 KSGF 251557
HRRSGF

HOURLY WEATHER
NATIONAL WEATHER SERVICE SPRINGFIELD MO
1100 AM CDT WED MAY 25 2016

......SGF CWA......

CITY           SKY/WX    TMP DP  RH WIND       PRES   REMARKS
SPRINGFIELD    LGT RAIN  64  58  80 S31G38    29.93F
JOPLIN         CLOUDY    70  59  68 S16G24    29.88S
WEST PLAINS    CLOUDY    70  63  78 W9        30.09F
ROLLA          CLOUDY    71  65  81 S14       30.00R
BRANSON        TSTM      64  63  94 W9        30.13S FOG

......SURROUNDING SGF CWA......

CITY           SKY/WX    TMP DP  RH WIND       PRES   REMARKS
CHANUTE        SUNNY     75  61  61 S17       29.87S
PARSONS        SUNNY     74  64  71 S14G23    29.89F
COFFEYVILLE    SUNNY     74  64  71 S16       29.90F
EMPORIA        CLOUDY    71  63  75 S16G24    29.90S
HARRISON AR    TSTM      63  62  97 W13G21    30.14R FOG

......KANSAS AND MISSOURI......

CITY           SKY/WX    TMP DP  RH WIND       PRES   REMARKS
KANSAS CTY INT PTSUNNY   72  60  66 NE8       29.92F
SEDALIA        CLOUDY    75  63  66 MISG      29.93R
ST JOSEPH      CLOUDY    72  60  66 NW12      29.97R
ST LOUIS       PTSUNNY   76  65  68 SE9       29.99F
WICHITA        CLOUDY    74  68  81 S15G28    29.84F
TOPEKA         CLOUDY    74  61  63 S9        29.90R
OLATHE         PTSUNNY   73  59  61 VRB6      29.91F

......TENNESSEE......

CITY           SKY/WX    TMP DP  RH WIND       PRES   REMARKS
MEMPHIS        NOT AVBL
NASHVILLE      CLOUDY    76  60  57 S8        30.17S

......ARKANSAS.......

CITY           SKY/WX    TMP DP  RH WIND       PRES   REMARKS
FAYETTEVILLE   CLOUDY    63  61  93 S7        30.02F
FT SMITH       HVY RAIN  66  63  90 NE14      30.08R FOG
LITTLE ROCK    MOSUNNY   78  69  73 S7        30.05F

......OKLAHOMA.......

CITY           SKY/WX    TMP DP  RH WIND       PRES   REMARKS
TULSA          MOSUNNY   74  66  76 SE17G25   29.92F
PONCA CITY     CLOUDY    76  67  73 SE20G33   29.87S
MCALESTER      CLOUDY    79  72  79 VRB7      29.99R
OKLAHOMA CITY  PTSUNNY   82  73  74 S22       29.89F

......IOWA............

CITY           SKY/WX    TMP DP  RH WIND       PRES   REMARKS
DES MOINES     NOT AVBL
QUAD CITIES    MOSUNNY   79  63  57 SE15      29.91F

......ILLINOIS........

CITY           SKY/WX    TMP DP  RH WIND       PRES   REMARKS
QUINCY         NOT AVBL
CHICAGO        CLOUDY    78  65  63 S8        29.98F



USA.gov is the U.S. government's official web portal to all federal, state and local government web resources and services.